Temp
-10 -10 -10 -10 -10 -10 -10 -10 -10 -10 -10 -10 -10 -10 -10 -9 -10 -10 -10 -10 -10 -10 -10 -11 -11 -11 -11 -11 -11 -11 -11 -12 -12 -12 -12 -11 -12 -12 -12 -12 -12 -12 -12 -12 -12
-10 -10 -10 -10 -10 -10 -10 -10 -10 -10 -10 -10 -10 -10 -10 -10 -10 -10 -10 -10 -10 -10 -10 -11 -10 -10 -10 -10 -11 -11 -11 -11 -11 -12 -12 -12 -12 -12 -12 -12 -12 -12 -12 -12 -12
-10 -10 -10 -10 -11 -11 -11 -10 -10 -10 -10 -9 -10 -10 -9 -9 -9 -10 -10 -10 -10 -10 -11 -11 -10 -10 -10 -10 -10 -11 -11 -12 -12 -12 -11 -12 -13 -12 -12 -12 -13 -13 -12 -12 -12
-10 -10 -10 -11 -11 -11 -10 -10 -10 -10 -10 -10 -10 -10 -10 -10 -10 -10 -10 -10 -10 -11 -11 -11 -11 -11 -11 -11 -11 -11 -11 -11 -12 -12 -12 -12 -12 -13 -13 -13 -14 -13 -13 -13 -13
-11 -11 -11 -11 -11 -10 -10 -10 -10 -10 -10 -10 -10 -10 -10 -10 -10 -10 -10 -10 -11 -11 -11 -11 -11 -11 -12 -12 -12 -12 -12 -12 -12 -12 -12 -13 -13 -14 -13 -13 -15 -14 -13 -14 -13
-10 -11 -11 -11 -11 -11 -10 -10 -10 -10 -10 -10 -10 -10 -10 -11 -11 -11 -11 -11 -11 -11 -12 -12 -12 -12 -12 -12 -12 -12 -12 -12 -13 -13 -14 -13 -13 -13 -13 -15 -15 -15 -14 -15 -14
-11 -10 -11 -10 -10 -10 -10 -10 -10 -10 -10 -10 -10 -10 -10 -10 -11 -11 -11 -11 -11 -12 -12 -12 -12 -13 -13 -13 -13 -13 -12 -13 -13 -14 -14 -15 -14 -14 -14 -15 -16 -14 -15 -15 -15
-11 -11 -11 -10 -10 -10 -10 -10 -10 -10 -10 -10 -10 -10 -10 -11 -11 -11 -11 -12 -12 -12 -12 -12 -13 -14 -14 -14 -14 -13 -13 -13 -13 -14 -15 -15 -15 -16 -16 -17 -17 -16 -16 -16 -15
-11 -11 -10 -10 -10 -10 -10 -10 -10 -10 -10 -10 -10 -11 -11 -11 -11 -11 -12 -12 -12 -12 -12 -13 -14 -14 -15 -15 -14 -15 -15 -15 -15 -16 -17 -17 -16 -17 -18 -18 -18 -18 -17 -17 -16
-11 -10 -10 -10 -10 -10 -10 -9 -10 -10 -10 -10 -11 -11 -11 -11 -11 -11 -12 -12 -12 -13 -13 -13 -14 -15 -16 -16 -16 -16 -16 -16 -17 -18 -18 -18 -18 -19 -19 -18 -18 -18 -18 -18 -18
-10 -10 -10 -10 -10 -10 -10 -10 -10 -10 -10 -11 -11 -11 -11 -11 -11 -12 -12 -12 -13 -13 -14 -14 -14 -16 -17 -17 -17 -18 -18 -18 -18 -19 -20 -20 -19 -19 -19 -19 -19 -18 -19 -19 -19
-10 -10 -10 -10 -10 -10 -10 -10 -10 -10 -10 -11 -11 -11 -11 -12 -12 -12 -13 -13 -13 -14 -14 -14 -15 -17 -17 -18 -18 -18 -19 -19 -19 -20 -21 -20 -20 -20 -20 -20 -19 -19 -19 -19 -19
-10 -10 -10 -10 -10 -10 -10 -10 -10 -10 -11 -10 -11 -11 -12 -12 -12 -13 -13 -13 -13 -13 -14 -14 -16 -17 -18 -18 -19 -19 -20 -20 -21 -21 -21 -21 -21 -21 -21 -20 -20 -20 -19 -19 -19
-10 -10 -10 -10 -10 -10 -10 -11 -11 -11 -10 -11 -11 -12 -12 -13 -13 -13 -14 -13 -13 -14 -14 -14 -16 -17 -18 -18 -21 -19 -21 -22 -22 -22 -22 -22 -22 -22 -21 -21 -21 -21 -21 -21 -20
-10 -10 -10 -10 -10 -10 -11 -11 -11 -11 -11 -11 -12 -13 -13 -13 -14 -14 -14 -14 -14 -14 -15 -16 -17 -18 -19 -20 -21 -22 -23 -23 -23 -23 -23 -22 -22 -21 -22 -22 -22 -22 -21 -21 -21
-10 -10 -10 -10 -10 -10 -10 -11 -11 -12 -12 -12 -13 -14 -14 -14 -14 -15 -15 -15 -15 -15 -16 -17 -19 -20 -20 -21 -22 -23 -23 -23 -23 -23 -23 -22 -23 -23 -22 -22 -22 -22 -22 -22 -21
-10 -10 -10 -11 -11 -10 -10 -11 -12 -12 -13 -13 -14 -14 -14 -14 -15 -15 -15 -15 -16 -17 -17 -18 -20 -21 -22 -23 -24 -24 -24 -25 -24 -24 -23 -23 -23 -23 -22 -22 -22 -22 -22 -22 -21
-11 -11 -11 -11 -11 -10 -11 -12 -12 -13 -14 -14 -14 -14 -14 -15 -15 -15 -15 -16 -17 -18 -20 -20 -20 -21 -24 -25 -24 -25 -25 -26 -25 -25 -24 -24 -23 -22 -23 -22 -22 -23 -22 -22 -22
-11 -11 -11 -11 -11 -11 -12 -12 -13 -13 -14 -14 -14 -14 -14 -15 -15 -15 -16 -17 -18 -20 -21 -23 -21 -22 -25 -26 -27 -26 -27 -26 -26 -25 -25 -24 -24 -23 -23 -23 -23 -23 -23 -23 -22
-11 -11 -11 -11 -11 -12 -12 -13 -14 -14 -15 -15 -15 -15 -15 -15 -15 -17 -18 -20 -21 -22 -23 -24 -24 -23 -24 -27 -28 -27 -27 -27 -27 -26 -26 -25 -24 -25 -24 -24 -24 -24 -23 -23 -22
-11 -11 -11 -12 -12 -12 -13 -14 -14 -15 -15 -15 -15 -15 -15 -15 -16 -17 -19 -21 -23 -24 -25 -26 -26 -25 -26 -27 -28 -28 -28 -28 -27 -27 -27 -26 -25 -25 -24 -24 -24 -24 -24 -23 -22
-11 -11 -11 -12 -13 -13 -14 -14 -15 -15 -15 -15 -15 -15 -16 -17 -18 -19 -21 -24 -25 -26 -26 -27 -28 -27 -27 -29 -29 -29 -29 -28 -28 -27 -27 -27 -26 -26 -25 -25 -24 -24 -24 -23 -23
-12 -12 -13 -13 -13 -14 -14 -15 -15 -15 -15 -15 -16 -17 -17 -19 -20 -21 -23 -25 -27 -28 -29 -29 -30 -30 -29 -31 -31 -30 -30 -29 -28 -27 -27 -28 -28 -27 -26 -26 -26 -25 -24 -24 -23
-12 -12 -13 -13 -14 -14 -14 -15 -16 -15 -15 -15 -16 -17 -18 -20 -22 -24 -25 -26 -28 -30 -31 -32 -32 -33 -32 -31 -32 -31 -31 -30 -30 -29 -28 -29 -28 -27 -27 -27 -26 -26 -25 -25 -24
-12 -13 -13 -13 -14 -14 -15 -15 -16 -16 -16 -16 -17 -19 -20 -21 -22 -25 -26 -28 -30 -31 -33 -34 -33 -34 -34 -34 -33 -32 -32 -31 -31 -30 -29 -29 -29 -28 -28 -28 -27 -27 -26 -25 -25
-13 -13 -13 -14 -14 -15 -15 -15 -16 -16 -16 -17 -18 -19 -21 -23 -26 -27 -29 -31 -32 -33 -34 -35 -35 -35 -35 -35 -34 -34 -34 -33 -32 -31 -31 -30 -30 -29 -28 -28 -28 -27 -27 -26 -25
-14 -14 -14 -15 -15 -15 -16 -16 -16 -16 -18 -18 -19 -21 -23 -25 -28 -30 -32 -34 -35 -36 -37 -36 -36 -36 -36 -36 -35 -35 -35 -34 -34 -34 -32 -31 -30 -30 -29 -28 -28 -28 -27 -27 -26
Height
5828 5826 5825 5823 5821 5819 5818 5815 5813 5811 5809 5807 5805 5803 5801 5798 5797 5794 5792 5791 5789 5787 5785 5783 5782 5780 5779 5778 5776 5774 5773 5772 5771 5769 5770 5768 5766 5765 5765 5765 5764 5764 5763 5763 5765
5829 5827 5826 5824 5822 5820 5817 5815 5814 5812 5809 5807 5804 5801 5800 5797 5795 5793 5790 5788 5785 5783 5781 5778 5777 5775 5774 5771 5768 5767 5766 5764 5762 5761 5760 5759 5759 5757 5757 5756 5756 5755 5754 5755 5758
5829 5828 5826 5824 5822 5819 5817 5814 5812 5810 5808 5805 5803 5801 5797 5795 5793 5790 5787 5784 5781 5778 5776 5774 5771 5769 5767 5765 5761 5760 5758 5755 5753 5752 5750 5750 5750 5749 5748 5749 5746 5745 5744 5746 5748
5829 5827 5826 5824 5821 5818 5817 5814 5811 5808 5806 5804 5801 5798 5794 5791 5790 5786 5783 5780 5777 5774 5771 5768 5765 5763 5761 5759 5756 5753 5752 5748 5746 5742 5741 5740 5739 5739 5739 5741 5735 5734 5735 5736 5736
5827 5825 5823 5821 5819 5817 5814 5812 5809 5806 5803 5800 5797 5794 5791 5787 5784 5780 5777 5774 5770 5767 5764 5760 5758 5755 5753 5751 5746 5744 5743 5740 5735 5732 5729 5727 5727 5724 5731 5728 5720 5723 5723 5725 5725
5826 5824 5821 5819 5817 5813 5811 5808 5805 5802 5798 5795 5792 5789 5785 5782 5778 5774 5770 5766 5763 5758 5754 5750 5747 5743 5741 5739 5734 5733 5731 5728 5723 5719 5716 5713 5714 5707 5718 5709 5706 5709 5711 5712 5714
5824 5821 5818 5816 5813 5810 5808 5804 5800 5797 5794 5790 5787 5783 5779 5776 5771 5766 5763 5758 5754 5750 5745 5740 5736 5732 5729 5726 5721 5718 5717 5713 5710 5706 5698 5693 5697 5695 5695 5689 5690 5694 5695 5698 5701
5821 5819 5815 5813 5810 5807 5803 5800 5797 5793 5789 5785 5781 5776 5772 5768 5763 5759 5754 5749 5744 5740 5735 5728 5723 5719 5716 5711 5705 5703 5699 5698 5696 5689 5681 5674 5677 5677 5674 5674 5676 5678 5680 5684 5687
5819 5816 5813 5809 5806 5802 5799 5795 5791 5788 5783 5778 5775 5769 5765 5759 5754 5749 5744 5739 5734 5729 5723 5717 5711 5707 5702 5694 5689 5687 5681 5678 5675 5667 5659 5655 5658 5657 5658 5657 5660 5663 5667 5669 5673
5816 5813 5810 5806 5802 5798 5794 5789 5785 5781 5776 5770 5766 5762 5755 5751 5745 5738 5734 5728 5723 5718 5712 5705 5698 5694 5687 5679 5674 5668 5662 5659 5653 5649 5640 5637 5639 5642 5641 5641 5644 5647 5651 5654 5657
5812 5809 5806 5801 5797 5793 5788 5784 5779 5776 5769 5763 5757 5752 5745 5739 5733 5728 5722 5717 5711 5705 5699 5691 5686 5682 5672 5663 5658 5650 5642 5638 5638 5631 5619 5622 5620 5626 5626 5625 5630 5634 5638 5640 5643
5807 5804 5800 5796 5792 5787 5782 5776 5770 5765 5759 5754 5747 5742 5734 5728 5722 5717 5712 5706 5699 5692 5684 5676 5672 5665 5656 5647 5640 5632 5625 5621 5616 5612 5605 5606 5606 5610 5611 5611 5617 5621 5624 5627 5630
5803 5799 5795 5790 5785 5781 5775 5770 5763 5756 5749 5743 5737 5730 5724 5718 5711 5705 5699 5692 5686 5679 5670 5660 5658 5647 5637 5629 5622 5616 5604 5603 5596 5597 5592 5592 5590 5597 5597 5598 5602 5606 5610 5614 5618
5797 5793 5787 5783 5779 5773 5767 5760 5754 5746 5739 5734 5727 5720 5713 5706 5699 5692 5686 5679 5672 5664 5655 5644 5638 5629 5620 5612 5601 5593 5594 5585 5583 5579 5579 5582 5575 5585 5586 5588 5591 5594 5598 5602 5606
5790 5785 5780 5774 5769 5764 5758 5750 5743 5737 5728 5722 5714 5706 5700 5694 5686 5680 5672 5663 5656 5646 5637 5629 5619 5609 5602 5595 5586 5579 5577 5573 5571 5567 5565 5570 5566 5572 5574 5576 5580 5584 5588 5592 5596
5783 5778 5772 5767 5760 5755 5747 5740 5732 5727 5717 5710 5702 5696 5688 5679 5672 5664 5655 5645 5638 5629 5620 5611 5600 5589 5584 5580 5571 5565 5563 5560 5558 5556 5551 5561 5558 5555 5561 5565 5568 5573 5577 5581 5585
5775 5771 5765 5758 5752 5744 5737 5730 5724 5715 5706 5700 5691 5684 5675 5668 5658 5647 5637 5629 5616 5604 5600 5596 5588 5574 5565 5563 5557 5552 5550 5547 5546 5545 5544 5549 5546 5545 5550 5553 5556 5560 5565 5569 5573
5768 5762 5756 5749 5742 5734 5727 5720 5713 5705 5697 5688 5679 5670 5661 5651 5642 5630 5618 5607 5597 5584 5574 5569 5570 5568 5546 5545 5543 5542 5539 5539 5534 5536 5537 5538 5537 5535 5537 5540 5543 5547 5551 5555 5560
5759 5753 5747 5740 5732 5724 5717 5709 5701 5693 5684 5676 5667 5656 5648 5636 5623 5610 5599 5587 5575 5565 5557 5542 5547 5549 5534 5532 5528 5528 5527 5528 5523 5527 5527 5529 5529 5528 5530 5533 5535 5537 5540 5543 5547
5751 5744 5736 5729 5721 5713 5706 5698 5689 5680 5671 5662 5653 5644 5633 5622 5609 5590 5577 5566 5553 5544 5531 5522 5514 5531 5525 5516 5514 5511 5513 5515 5515 5516 5517 5519 5521 5520 5520 5525 5526 5529 5529 5533 5537
5742 5734 5726 5719 5711 5703 5695 5687 5677 5668 5660 5650 5637 5627 5615 5602 5591 5576 5562 5545 5535 5527 5514 5502 5495 5505 5502 5499 5496 5501 5498 5501 5503 5504 5507 5511 5513 5512 5513 5514 5516 5519 5521 5525 5527
5733 5725 5717 5709 5702 5692 5684 5675 5667 5657 5646 5634 5623 5611 5596 5583 5572 5557 5545 5526 5514 5503 5497 5491 5480 5478 5485 5483 5480 5481 5483 5487 5488 5490 5494 5499 5502 5504 5504 5504 5506 5510 5512 5516 5519
5723 5715 5708 5699 5691 5682 5673 5664 5655 5644 5634 5620 5607 5594 5580 5563 5547 5537 5523 5510 5497 5485 5476 5472 5466 5462 5467 5467 5466 5467 5470 5472 5475 5478 5483 5485 5488 5489 5490 5495 5498 5501 5503 5506 5509
5712 5705 5697 5688 5681 5671 5661 5652 5640 5632 5620 5607 5593 5578 5564 5550 5530 5516 5504 5496 5483 5472 5462 5456 5454 5452 5451 5453 5454 5458 5461 5462 5463 5466 5469 5471 5474 5476 5480 5482 5485 5489 5493 5497 5499
5702 5694 5686 5677 5668 5659 5651 5640 5629 5618 5605 5591 5576 5558 5542 5528 5517 5504 5488 5479 5471 5456 5450 5444 5444 5442 5442 5440 5443 5444 5449 5451 5453 5455 5457 5458 5461 5463 5464 5468 5471 5476 5480 5484 5488
5692 5684 5676 5667 5658 5648 5638 5628 5617 5602 5590 5576 5560 5542 5524 5508 5492 5481 5469 5464 5455 5449 5441 5438 5436 5436 5434 5435 5436 5437 5439 5440 5440 5443 5445 5447 5448 5451 5454 5457 5460 5463 5467 5472 5476
5681 5674 5667 5658 5647 5637 5627 5614 5601 5588 5572 5556 5542 5528 5510 5496 5481 5468 5458 5452 5448 5443 5439 5435 5433 5431 5432 5433 5433 5435 5434 5434 5434 5434 5435 5438 5438 5438 5441 5444 5447 5449 5453 5458 5463
Wind_Speed
13 14 16 19 21 19 20 21 20 16 16 21 21 23 22 21 21 20 20 19 16 17 17 21 24 27 30 34 36 34 32 28 31 31 30 34 36 38 37 37 36 36 37 38 38
12 10 13 16 17 18 17 18 18 18 20 22 23 25 27 24 22 21 21 21 21 21 25 28 32 33 35 39 41 39 35 36 39 38 36 33 36 39 40 40 37 39 41 40 37
9 9 11 14 15 15 17 18 19 20 21 23 25 26 26 27 28 26 25 24 25 26 27 30 30 31 32 38 45 42 39 40 41 43 47 43 36 40 42 41 40 43 43 42 41
10 10 11 15 16 18 20 21 22 22 22 22 24 25 28 29 27 26 27 28 30 32 33 36 36 37 36 38 41 40 41 43 45 48 51 49 49 42 43 44 45 46 46 43 43
12 13 14 16 17 19 20 20 23 23 22 24 24 27 29 30 29 31 32 33 33 36 39 41 41 43 42 41 44 43 43 46 47 48 50 52 52 50 49 47 51 49 48 44 45
15 18 20 21 21 21 20 22 26 29 29 28 29 29 32 32 34 34 34 36 39 40 44 46 46 44 46 47 50 51 52 54 53 51 54 58 58 62 58 50 51 52 50 48 48
18 21 23 24 24 24 25 27 29 30 33 33 35 34 35 34 36 37 38 41 42 44 49 52 53 51 52 54 57 59 61 62 62 59 59 59 65 65 58 59 55 54 51 49 49
20 22 24 26 26 26 27 28 31 33 35 37 38 38 38 39 39 39 41 44 44 48 53 54 55 53 54 58 62 64 67 66 65 67 66 65 64 60 60 58 54 56 53 52 50
21 24 25 27 28 29 31 34 36 37 40 40 40 40 42 42 40 42 44 45 48 51 52 56 58 57 56 55 65 62 64 66 66 63 66 68 65 63 55 53 52 52 51 51 50
22 25 27 29 32 33 36 38 40 41 41 43 42 43 45 44 47 46 45 45 46 51 54 58 60 57 55 59 58 60 64 63 63 65 70 70 66 60 51 51 48 50 51 50 51
25 27 30 33 34 36 39 41 42 43 47 47 45 44 48 48 47 46 46 49 50 54 58 62 63 56 60 59 60 60 62 63 62 67 67 61 61 51 44 45 44 45 48 49 50
27 29 32 35 38 39 44 44 47 50 54 52 47 49 47 48 47 49 49 52 55 58 64 67 65 60 61 61 60 61 62 62 65 60 57 54 51 41 39 43 43 42 43 45 51
29 33 35 39 40 44 47 49 50 53 58 56 56 50 48 49 51 51 54 57 60 63 67 71 65 64 62 62 57 57 61 60 61 53 51 46 45 35 36 39 41 42 44 44 44
33 36 40 41 44 47 50 53 53 56 61 63 56 53 52 52 54 55 58 62 64 68 72 77 69 67 63 57 54 61 57 58 54 49 47 40 46 35 35 35 33 36 39 41 42
39 43 44 46 50 53 55 56 58 59 63 62 56 53 53 55 57 61 62 66 70 74 77 74 71 63 58 53 53 57 56 54 49 45 43 39 42 35 35 37 35 34 36 38 42
41 42 44 47 50 53 55 57 58 60 59 57 55 54 56 59 61 64 68 72 76 78 78 73 64 58 55 50 49 53 51 48 42 37 41 29 33 37 33 33 35 37 39 42 45
40 41 45 47 50 54 57 58 59 59 60 58 57 56 58 61 65 70 74 78 79 78 77 74 61 59 54 48 48 47 41 38 38 36 35 27 32 36 31 31 31 33 37 40 40
43 45 49 52 55 58 59 58 58 57 55 56 59 60 63 68 71 76 80 82 81 79 73 72 63 51 54 48 46 40 38 31 33 27 23 24 19 18 16 23 30 34 33 38 41
45 50 52 57 59 59 57 58 57 57 59 60 61 65 68 73 78 82 82 83 81 78 70 66 62 49 52 45 44 41 37 35 38 31 32 31 24 35 36 30 29 22 25 34 41
50 53 55 58 58 58 57 55 55 58 59 62 66 71 74 79 83 85 83 81 76 70 67 64 64 48 44 44 40 40 35 33 31 29 28 33 37 33 34 30 28 26 31 28 26
51 54 56 56 58 56 56 56 59 59 62 67 72 77 82 84 86 86 83 79 72 66 63 62 61 50 45 44 44 36 38 35 34 36 34 29 25 29 34 36 32 31 31 32 31
55 55 56 57 55 55 57 60 60 62 68 74 78 82 85 88 87 86 77 72 69 65 60 57 57 53 44 40 40 38 36 33 36 40 38 34 37 36 25 34 33 34 36 34 34
55 54 55 54 56 57 60 61 63 68 72 78 82 85 88 88 87 81 75 68 62 60 59 55 53 51 42 38 30 30 25 26 30 39 39 37 37 41 43 42 33 35 40 45 46
56 55 54 55 57 61 61 64 69 72 76 82 86 89 89 84 81 76 70 65 58 54 51 48 44 38 37 34 30 28 28 28 25 27 37 33 37 43 45 44 38 42 40 40 43
56 56 57 57 60 62 64 67 71 76 82 87 89 88 88 86 81 72 67 57 48 46 41 38 36 31 28 27 23 23 26 35 39 39 40 37 34 36 40 47 47 46 42 44 47
54 56 58 60 62 64 66 70 75 81 86 90 90 89 86 81 74 66 59 48 41 35 32 27 22 18 14 13 13 11 14 20 25 32 38 41 44 44 44 44 45 49 47 50 48
54 57 59 61 62 64 69 74 81 86 88 91 89 87 81 73 62 54 46 38 25 18 19 21 21 18 8 10 8 4 6 9 12 17 27 33 40 46 49 48 50 52 51 49 49
Wind_Direction
35 40 47 35 30 31 30 21 13 15 19 16 9 6 6 4 3 2 360 354 349 341 333 331 331 338 338 336 331 326 327 329 325 318 307 301 291 282 277 273 267 263 261 255 251
25 38 37 27 22 25 19 17 21 10 1 358 360 356 355 351 348 343 345 341 336 334 328 326 326 327 326 325 323 322 323 321 321 318 313 302 296 290 284 275 271 266 261 258 255
6 9 11 8 10 10 13 14 8 8 2 357 353 348 345 342 336 331 326 324 321 317 314 315 313 310 305 305 307 310 316 314 314 311 309 307 295 287 285 280 271 264 262 261 257
356 348 344 351 353 356 360 357 353 350 345 343 343 340 335 332 328 323 317 315 314 314 315 315 312 311 311 310 305 303 306 302 306 306 305 303 300 295 282 281 267 264 261 258 257
341 344 341 340 341 343 347 348 345 344 341 338 336 332 329 326 322 317 312 309 309 310 313 313 312 310 310 308 303 304 303 301 297 298 300 298 296 292 295 281 270 263 261 258 254
328 331 330 330 329 330 339 342 342 339 336 333 330 328 326 326 321 316 309 304 303 306 310 310 309 307 306 307 306 304 303 304 305 304 297 293 290 289 290 270 263 263 259 256 255
320 323 327 335 339 340 338 337 336 336 333 331 327 325 321 321 319 315 308 305 302 303 306 306 306 305 306 307 306 306 304 305 306 300 291 284 287 286 275 264 258 259 256 252 250
318 324 328 333 335 337 332 330 327 325 324 322 321 319 318 316 313 311 307 304 301 300 302 302 303 306 310 307 304 304 302 300 300 297 290 278 283 267 264 263 261 256 252 250 249
322 328 330 329 330 330 330 328 326 325 322 318 317 315 316 313 311 308 305 302 299 299 300 302 304 306 306 302 302 303 300 301 299 288 277 272 272 269 269 266 257 256 253 249 247
327 327 327 328 328 327 328 326 323 325 323 321 316 314 314 312 309 307 306 304 302 301 302 302 302 303 300 300 299 297 296 295 291 279 276 276 275 277 274 265 258 251 250 249 247
325 324 325 326 326 326 325 324 322 325 325 323 318 313 314 312 310 309 307 306 305 305 303 301 302 301 299 297 297 293 289 287 283 280 282 283 279 276 268 261 256 253 246 246 248
321 322 322 322 321 320 322 324 324 323 325 324 320 317 314 312 310 309 307 306 306 304 302 301 303 301 300 297 295 291 285 283 280 285 284 282 280 277 263 256 251 247 244 245 248
317 316 316 317 316 316 316 320 320 320 322 322 320 317 315 313 311 309 308 307 306 305 304 303 305 304 300 299 293 287 280 282 285 285 283 283 277 272 263 253 248 242 240 242 246
312 313 313 314 314 319 316 315 317 316 319 321 321 318 315 312 310 308 307 307 306 304 304 304 306 304 303 300 287 286 287 287 289 287 286 275 274 267 264 254 250 245 239 238 240
313 312 311 310 312 314 315 314 313 314 319 320 318 316 314 311 309 309 308 306 306 305 305 309 308 307 303 295 284 285 285 287 287 284 280 275 277 274 261 253 248 243 241 237 237
311 311 313 312 313 316 317 316 314 317 319 318 317 316 313 312 310 308 308 306 306 305 306 309 310 303 301 294 283 283 286 287 285 279 273 283 268 268 262 258 249 244 241 241 237
310 313 314 314 316 318 317 315 315 318 317 318 316 315 313 311 310 309 308 308 308 309 309 309 309 306 295 289 283 283 286 287 280 276 282 273 265 265 261 255 252 247 242 239 244
311 312 316 317 318 316 315 315 317 316 316 316 316 315 314 312 311 310 310 309 310 310 309 311 309 306 292 288 283 281 283 279 278 276 275 276 269 268 255 254 249 244 239 237 237
314 315 317 319 318 316 317 317 317 317 317 318 316 314 314 313 312 312 312 312 311 312 310 305 306 302 288 286 282 277 273 272 270 264 258 255 261 260 265 271 263 257 234 237 237
315 315 314 316 317 317 317 317 317 318 318 317 315 314 314 313 313 313 315 315 313 311 307 301 299 300 287 279 274 274 270 259 260 262 257 254 257 268 269 261 264 263 265 248 231
315 315 316 317 316 317 317 318 319 318 318 317 315 315 314 314 315 316 317 314 311 308 304 299 296 300 289 284 276 262 261 261 257 253 246 241 259 263 265 265 259 260 256 246 244
317 315 316 316 317 317 318 319 319 318 318 317 316 315 316 317 318 318 317 312 311 307 302 297 293 292 289 285 277 272 266 256 246 249 250 245 245 240 251 234 243 243 245 235 242
314 315 316 317 318 318 320 320 320 319 318 316 316 318 319 320 318 318 316 314 310 305 302 298 294 294 289 287 291 282 273 266 251 242 244 246 239 241 244 246 241 239 238 231 233
314 314 315 316 318 320 321 320 319 318 317 316 317 319 320 321 319 318 315 315 310 305 299 297 296 298 296 287 275 252 246 247 240 237 231 236 237 238 242 245 244 246 242 236 232
314 314 316 320 321 320 320 319 318 318 317 317 320 322 322 321 320 318 316 316 314 305 303 300 302 296 291 286 285 275 251 242 246 250 245 241 240 237 238 241 243 242 240 239 240
316 317 317 319 319 320 320 319 319 318 319 320 322 324 325 322 321 321 319 320 319 311 308 317 317 316 310 298 293 281 279 262 258 249 250 253 254 250 248 246 245 245 245 235 234
317 316 318 318 320 320 319 319 319 319 322 323 325 326 324 323 324 323 324 330 332 320 321 324 326 336 346 350 343 320 261 254 244 248 250 249 249 253 252 251 250 249 249 247 243